• In Hungary
  • List of Countries
  • For 7 days
  • Water Temperature
  • Satellite Maps
  • Weather Map
  • News
  • Weather Widgets
  • user-avatar
    Login

    Hourly Weather Nietuszkowo

    Today, 23 September, Sunday

    Time Temperature Precipitation Wind Pressure Humidity
    00:00 +11°C° 0 mm 4 mps 752 mmHg 72%
    01:00 +11°C° 0 mm 4 mps 752 mmHg 72%
    02:00 +10°C° 0.1 mm 4 mps 751 mmHg 77%
    03:00 +10°C° 0.1 mm 4 mps 751 mmHg 81%
    04:00 +10°C° 0.1 mm 4 mps 751 mmHg 85%
    05:00 +10°C° 0 mm 4 mps 751 mmHg 86%
    06:00 +10°C° 0 mm 4 mps 751 mmHg 87%
    07:00 +10°C° 0 mm 4 mps 751 mmHg 88%
    08:00 +11°C° 0 mm 4 mps 751 mmHg 79%
    09:00 +12°C° 0 mm 4 mps 751 mmHg 71%
    10:00 +13°C° 0 mm 4 mps 751 mmHg 63%
    11:00 +14°C° 0 mm 4 mps 751 mmHg 60%
    12:00 +14°C° 0 mm 4 mps 750 mmHg 57%
    13:00 +15°C° 0 mm 4 mps 750 mmHg 54%
    14:00 +14°C° 0.4 mm 3 mps 749 mmHg 60%
    15:00 +14°C° 0.4 mm 2 mps 749 mmHg 67%
    16:00 +13°C° 0.4 mm 2 mps 748 mmHg 73%
    17:00 +12°C° 0.8 mm 2 mps 747 mmHg 78%
    18:00 +12°C° 0.8 mm 1 mps 746 mmHg 83%
    19:00 +11°C° 0.8 mm 1 mps 745 mmHg 88%
    20:00 +10°C° 0.3 mm 2 mps 746 mmHg 88%
    21:00 +10°C° 0.3 mm 2 mps 746 mmHg 87%
    22:00 +10°C° 0.3 mm 3 mps 746 mmHg 87%
    23:00 +10°C° 0.9 mm 4 mps 746 mmHg 86%

    Tomorrow, 24 September, Monday

    Time Temperature Precipitation Wind Pressure Humidity
    00:00 +10°C° 0.9 mm 4 mps 747 mmHg 85%
    01:00 +10°C° 0.9 mm 4 mps 747 mmHg 85%
    02:00 +9°C° 0.3 mm 5 mps 748 mmHg 83%
    03:00 +9°C° 0.3 mm 5 mps 749 mmHg 82%
    04:00 +8°C° 0.3 mm 6 mps 749 mmHg 80%
    05:00 +8°C° 0 mm 6 mps 750 mmHg 79%
    06:00 +8°C° 0 mm 7 mps 750 mmHg 78%
    07:00 +8°C° 0 mm 7 mps 751 mmHg 77%
    08:00 +9°C° 0 mm 8 mps 751 mmHg 71%
    09:00 +10°C° 0 mm 9 mps 752 mmHg 65%
    10:00 +11°C° 0 mm 9 mps 752 mmHg 59%
    11:00 +11°C° 0.2 mm 9 mps 753 mmHg 57%
    12:00 +11°C° 0.2 mm 10 mps 753 mmHg 55%
    13:00 +11°C° 0.2 mm 10 mps 754 mmHg 54%
    14:00 +11°C° 0.3 mm 9 mps 755 mmHg 57%
    15:00 +10°C° 0.3 mm 8 mps 755 mmHg 59%
    16:00 +9°C° 0.3 mm 7 mps 756 mmHg 62%
    17:00 +9°C° 0.1 mm 6 mps 756 mmHg 67%
    18:00 +8°C° 0.1 mm 6 mps 757 mmHg 71%
    19:00 +7°C° 0.1 mm 5 mps 758 mmHg 75%
    20:00 +7°C° 0.1 mm 5 mps 758 mmHg 76%
    21:00 +7°C° 0.1 mm 5 mps 759 mmHg 76%
    22:00 +7°C° 0.1 mm 5 mps 760 mmHg 76%
    23:00 +7°C° 0.1 mm 5 mps 760 mmHg 77%

    Day after tomorrow, 25 September, Tuesday

    Time Temperature Precipitation Wind Pressure Humidity
    00:00 +6°C° 0.1 mm 4 mps 761 mmHg 78%
    01:00 +6°C° 0.1 mm 4 mps 761 mmHg 78%
    02:00 +6°C° 0 mm 4 mps 762 mmHg 80%
    03:00 +5°C° 0 mm 4 mps 762 mmHg 81%
    04:00 +5°C° 0 mm 3 mps 762 mmHg 83%
    05:00 +5°C° 0 mm 3 mps 763 mmHg 82%
    06:00 +5°C° 0 mm 4 mps 763 mmHg 80%
    07:00 +5°C° 0 mm 4 mps 764 mmHg 79%
    08:00 +7°C° 0 mm 4 mps 765 mmHg 69%
    09:00 +10°C° 0 mm 4 mps 765 mmHg 58%
    10:00 +10°C° 0 mm 5 mps 766 mmHg 47%
    11:00 +12°C° 0 mm 4 mps 766 mmHg 45%
    12:00 +12°C° 0 mm 4 mps 766 mmHg 42%
    13:00 +13°C° 0 mm 4 mps 766 mmHg 39%
    14:00 +13°C° 0 mm 4 mps 766 mmHg 41%
    15:00 +13°C° 0 mm 4 mps 766 mmHg 42%
    16:00 +12°C° 0 mm 4 mps 766 mmHg 44%
    17:00 +11°C° 0 mm 3 mps 766 mmHg 51%
    18:00 +10°C° 0 mm 3 mps 766 mmHg 58%
    19:00 +8°C° 0 mm 2 mps 766 mmHg 65%
    20:00 +8°C° 0 mm 2 mps 767 mmHg 67%
    21:00 +7°C° 0 mm 2 mps 767 mmHg 69%
    22:00 +7°C° 0 mm 2 mps 767 mmHg 70%
    23:00 +7°C° 0 mm 2 mps 767 mmHg 70%

    26 September, Wednesday

    Time Temperature Precipitation Wind Pressure Humidity
    00:00 +7°C° 0 mm 2 mps 767 mmHg 69%
    01:00 +7°C° 0 mm 2 mps 766 mmHg 69%
    02:00 +5°C° 0 mm 3 mps 766 mmHg 71%
    03:00 +5°C° 0 mm 3 mps 766 mmHg 72%
    04:00 +5°C° 0 mm 3 mps 766 mmHg 74%
    05:00 +5°C° 0 mm 3 mps 766 mmHg 73%
    06:00 +7°C° 0 mm 3 mps 765 mmHg 71%
    07:00 +6°C° 0 mm 4 mps 765 mmHg 70%
    08:00 +8°C° 0 mm 5 mps 765 mmHg 65%
    09:00 +10°C° 0 mm 5 mps 765 mmHg 59%
    10:00 +11°C° 0 mm 6 mps 764 mmHg 54%
    11:00 +13°C° 0 mm 6 mps 764 mmHg 53%
    12:00 +13°C° 0 mm 6 mps 763 mmHg 53%
    13:00 +13°C° 0 mm 6 mps 763 mmHg 52%
    14:00 +13°C° 0 mm 6 mps 762 mmHg 51%
    15:00 +13°C° 0 mm 5 mps 761 mmHg 51%
    16:00 +13°C° 0 mm 5 mps 761 mmHg 50%
    17:00 +13°C° 0 mm 5 mps 760 mmHg 50%
    18:00 +13°C° 0 mm 5 mps 760 mmHg 51%
    19:00 +13°C° 0 mm 5 mps 760 mmHg 52%
    20:00 +13°C° 0 mm 5 mps 759 mmHg 52%
    21:00 +13°C° 0 mm 5 mps 759 mmHg 52%
    22:00 +13°C° 0 mm 6 mps 759 mmHg 51%
    23:00 +13°C° 0 mm 6 mps 758 mmHg 52%

    27 September, Thursday

    Time Temperature Precipitation Wind Pressure Humidity
    00:00 +13°C° 0 mm 6 mps 758 mmHg 52%
    01:00 +13°C° 0 mm 6 mps 758 mmHg 52%
    02:00 +13°C° 0 mm 6 mps 758 mmHg 55%
    03:00 +13°C° 0 mm 6 mps 757 mmHg 57%
    04:00 +11°C° 0 mm 6 mps 757 mmHg 60%
    05:00 +13°C° 0 mm 6 mps 757 mmHg 63%
    06:00 +13°C° 0 mm 6 mps 757 mmHg 67%
    07:00 +13°C° 0 mm 6 mps 757 mmHg 70%
    08:00 +14°C° 0 mm 6 mps 758 mmHg 70%
    09:00 +15°C° 0 mm 6 mps 758 mmHg 70%
    10:00 +15°C° 0 mm 7 mps 758 mmHg 70%
    11:00 +16°C° 0 mm 6 mps 758 mmHg 69%
    12:00 +17°C° 0 mm 6 mps 758 mmHg 68%
    13:00 +19°C° 0 mm 6 mps 758 mmHg 67%
    14:00 +19°C° 0 mm 6 mps 758 mmHg 70%
    15:00 +17°C° 0 mm 5 mps 758 mmHg 73%
    16:00 +18°C° 0 mm 4 mps 757 mmHg 75%
    17:00 +17°C° 0 mm 4 mps 757 mmHg 79%
    18:00 +16°C° 0 mm 3 mps 757 mmHg 84%
    19:00 +14°C° 0 mm 3 mps 757 mmHg 88%
    20:00 +14°C° 0 mm 3 mps 757 mmHg 88%
    21:00 +14°C° 0 mm 3 mps 757 mmHg 89%
    22:00 +14°C° 0 mm 4 mps 757 mmHg 89%
    23:00 +14°C° 0 mm 4 mps 757 mmHg 89%

    28 September, Friday

    Time Temperature Precipitation Wind Pressure Humidity
    00:00 +14°C° 0 mm 4 mps 756 mmHg 89%
    01:00 +14°C° 0 mm 4 mps 756 mmHg 90%
    02:00 +14°C° 0 mm 4 mps 755 mmHg 89%
    03:00 +14°C° 0 mm 5 mps 755 mmHg 89%
    04:00 +14°C° 0 mm 5 mps 755 mmHg 89%
    05:00 +14°C° 0 mm 5 mps 755 mmHg 89%
    06:00 +14°C° 0 mm 5 mps 755 mmHg 88%
    07:00 +14°C° 0 mm 4 mps 755 mmHg 88%
    08:00 +15°C° 0 mm 4 mps 756 mmHg 83%
    09:00 +15°C° 0 mm 4 mps 756 mmHg 79%
    10:00 +17°C° 0 mm 4 mps 756 mmHg 74%
    11:00 +17°C° 0 mm 4 mps 757 mmHg 71%
    12:00 +17°C° 0 mm 4 mps 757 mmHg 67%
    13:00 +17°C° 0 mm 4 mps 757 mmHg 63%
    14:00 +17°C° 0 mm 3 mps 757 mmHg 61%
    15:00 +17°C° 0 mm 3 mps 757 mmHg 59%
    16:00 +17°C° 0 mm 3 mps 757 mmHg 58%
    17:00 +16°C° 0 mm 2 mps 757 mmHg 62%
    18:00 +14°C° 0 mm 2 mps 757 mmHg 65%
    19:00 +13°C° 0 mm 2 mps 757 mmHg 69%
    20:00 +12°C° 0 mm 2 mps 757 mmHg 71%
    21:00 +12°C° 0 mm 2 mps 757 mmHg 73%
    22:00 +10°C° 0 mm 2 mps 758 mmHg 74%
    23:00 +10°C° 0 mm 2 mps 758 mmHg 75%
    Show more